| time (UTC) | temp F | wind direction | speed knots | gust knots | rain 1hr in | rain 24hr in | rain mn in | humidity % | barometer mb |
| 20260507193037 | 85 | 225 | 1.7 | 4.3 | 0.00 | 0.00 | 0.00 | 56 | 1004.6 |
| 20260507191533 | 84 | 244 | 1.7 | 5.2 | 0.00 | 0.00 | 0.00 | 58 | 1004.9 |
| 20260507190028 | 83 | 183 | 1.7 | 4.3 | 0.00 | 0.00 | 0.00 | 61 | 1003.4 |
| 20260507184527 | 83 | 213 | 2.6 | 4.3 | 0.00 | 0.00 | 0.00 | 63 | 1000.5 |
| 20260507183035 | 83 | 167 | 1.7 | 5.2 | 0.00 | 0.00 | 0.00 | 65 | 999.7 |
| 20260507181519 | 83 | 218 | 1.7 | 4.3 | 0.00 | 0.00 | 0.00 | 67 | 998.6 |
| 20260507180015 | 83 | 184 | 2.6 | 4.3 | 0.00 | 0.00 | 0.00 | 65 | 997.2 |
| 20260507174516 | 83 | 154 | 0.9 | 3.5 | 0.00 | 0.00 | 0.00 | 67 | 997.2 |
| 20260507173045 | 82 | 210 | 0.9 | 4.3 | 0.00 | 0.00 | 0.00 | 69 | 1001.8 |
| 20260507171553 | 82 | 198 | 1.7 | 3.5 | 0.00 | 0.00 | 0.00 | 71 | 1001.2 |
| 20260507170036 | 81 | 135 | 0.9 | 3.5 | 0.00 | 0.00 | 0.00 | 72 | 1005.6 |
| 20260507164544 | 81 | 141 | 1.7 | 3.5 | 0.00 | 0.00 | 0.00 | 71 | 1005.4 |
| 20260507163043 | 82 | 85 | 0.9 | 4.3 | 0.00 | 0.00 | 0.00 | 72 | 1005.4 |
| 20260507161539 | 81 | 87 | 0.9 | 4.3 | 0.00 | 0.00 | 0.00 | 72 | 1001.5 |
| 20260507160039 | 80 | 143 | 0.9 | 3.5 | 0.00 | 0.00 | 0.00 | 74 | 999.3 |
| 20260507154523 | 79 | 114 | 0.0 | 2.6 | 0.00 | 0.00 | 0.00 | 75 | 1000.0 |
| 20260507153019 | 79 | 121 | 0.9 | 2.6 | 0.00 | 0.00 | 0.00 | 74 | 998.9 |
| 20260507151519 | 79 | 85 | 0.9 | 3.5 | 0.00 | 0.00 | 0.00 | 75 | 999.9 |
| 20260507150020 | 78 | 79 | 1.7 | 5.2 | 0.00 | 0.00 | 0.00 | 74 | 1006.3 |
| 20260507144521 | 77 | 75 | 1.7 | 7.0 | 0.00 | 0.00 | 0.00 | 75 | 1005.0 |
| 20260507143013 | 77 | 82 | 1.7 | 3.5 | 0.00 | 0.00 | 0.00 | 75 | 1004.8 |
| 20260507141515 | 77 | 61 | 2.6 | 4.3 | 0.00 | 0.00 | 0.00 | 76 | 1002.4 |
| 20260507140006 | 0 | 0.0 | 0.0 | 0.00 | 0.00 | 0.00 | 1005.7 | ||
| 20260507134600 | 0 | 0.0 | 0.0 | 0.00 | 0.00 | 0.00 | 1005.7 | ||
| 20260507133101 | 0 | 0.0 | 0.0 | 0.00 | 0.00 | 0.00 | 1005.6 | ||
| 20260507131551 | 0 | 0.0 | 0.0 | 0.00 | 0.00 | 0.00 | 1005.4 | ||
| 20260507130058 | 0 | 0.0 | 0.0 | 0.00 | 0.00 | 0.00 | 1005.2 | ||
| 20260507124557 | 0 | 0.0 | 0.0 | 0.00 | 0.00 | 0.00 | 1004.9 | ||
| 20260507123036 | 0 | 0.0 | 0.0 | 0.00 | 0.00 | 0.00 | 1004.6 | ||
| 20260507121535 | 0 | 0.0 | 0.0 | 0.00 | 0.00 | 0.00 | 1004.6 | ||
| 20260507120025 | 0 | 0.0 | 0.0 | 0.00 | 0.00 | 0.00 | 1004.6 | ||
| 20260507114523 | 0 | 0.0 | 0.0 | 0.00 | 0.00 | 0.00 | 1004.5 | ||
| 20260507113019 | 0 | 0.0 | 0.0 | 0.00 | 0.00 | 0.00 | 1004.2 | ||
| 20260507111515 | 0 | 0.0 | 0.0 | 0.00 | 0.00 | 0.00 | 1004.0 | ||
| 20260507110017 | 0 | 0.0 | 0.0 | 0.00 | 0.00 | 0.00 | 1004.0 | ||
| 20260507104503 | 0 | 0.0 | 0.0 | 0.00 | 0.00 | 0.00 | 1002.5 | ||
| 20260507103058 | 0 | 0.0 | 0.0 | 0.00 | 0.00 | 0.00 | 1002.8 | ||
| 20260507101557 | 0 | 0.0 | 0.0 | 0.00 | 0.00 | 0.00 | 1002.4 | ||
| 20260507100047 | 0 | 0.0 | 0.0 | 0.00 | 0.00 | 0.00 | 1002.5 | ||
| 20260507094544 | 0 | 0.0 | 0.0 | 0.00 | 0.00 | 0.00 | 1003.2 | ||
| 20260507093041 | 0 | 0.0 | 0.0 | 0.00 | 0.00 | 0.00 | 1003.1 | ||
| 20260507091540 | 75 | 71 | 0.0 | 2.6 | 0.00 | 0.00 | 0.00 | 75 | 1003.1 |
| 20260507090030 | 75 | 86 | 0.9 | 2.6 | 0.00 | 0.00 | 0.00 | 75 | 1003.3 |
| 20260507084532 | 74 | 86 | 0.0 | 1.7 | 0.00 | 0.00 | 0.00 | 76 | 1003.4 |
| 20260507083029 | 74 | 85 | 0.0 | 0.0 | 0.00 | 0.00 | 0.00 | 77 | 1004.4 |
| 20260507081527 | 74 | 85 | 0.0 | 1.7 | 0.00 | 0.00 | 0.00 | 79 | 1003.9 |
| 20260507080024 | 75 | 86 | 0.0 | 0.0 | 0.00 | 0.00 | 0.00 | 82 | 1003.7 |
| 20260507074524 | 75 | 85 | 0.0 | 0.0 | 0.00 | 0.00 | 0.00 | 82 | 1003.6 |
| 20260507073022 | 75 | 86 | 0.0 | 0.0 | 0.00 | 0.00 | 0.00 | 81 | 1005.1 |
| 20260507071521 | 75 | 86 | 0.0 | 0.0 | 0.00 | 0.00 | 0.00 | 81 | 1004.6 |
| 20260507070020 | 75 | 86 | 0.0 | 0.9 | 0.00 | 0.00 | 0.00 | 81 | 1004.1 |
| 20260507064517 | 75 | 85 | 0.0 | 0.0 | 0.00 | 0.00 | 0.00 | 80 | 1005.5 |
| 20260507063029 | 76 | 85 | 0.0 | 0.0 | 0.00 | 0.00 | 0.00 | 80 | 1000.0 |
| 20260507061516 | 76 | 86 | 0.0 | 0.0 | 0.00 | 0.00 | 0.00 | 79 | 1004.1 |
| 20260507060032 | 76 | 86 | 0.0 | 0.0 | 0.00 | 0.00 | 0.00 | 79 | 1003.8 |
| 20260507054545 | 76 | 86 | 0.0 | 0.0 | 0.00 | 0.00 | 0.00 | 78 | 1005.2 |
| 20260507053043 | 76 | 85 | 0.0 | 0.0 | 0.00 | 0.00 | 0.00 | 79 | 1004.7 |
| 20260507051540 | 76 | 86 | 0.0 | 0.0 | 0.00 | 0.00 | 0.00 | 78 | 1002.8 |
| 20260507050039 | 76 | 86 | 0.0 | 0.0 | 0.00 | 0.00 | 0.00 | 78 | 1004.0 |
| 20260507044540 | 77 | 85 | 0.0 | 0.0 | 0.00 | 0.00 | 0.00 | 77 | 1002.5 |
| 20260507043038 | 77 | 86 | 0.0 | 0.0 | 0.00 | 0.00 | 0.00 | 77 | 1003.1 |
| 20260507041532 | 77 | 86 | 0.0 | 0.0 | 0.00 | 0.00 | 0.00 | 76 | 999.1 |
| 20260507040034 | 77 | 86 | 0.0 | 0.0 | 0.00 | 0.00 | 0.00 | 76 | 996.5 |
| 20260507034535 | 77 | 86 | 0.0 | 0.9 | 0.00 | 0.00 | 0.00 | 75 | 997.2 |
| 20260507033029 | 77 | 86 | 0.0 | 0.0 | 0.00 | 0.00 | 0.00 | 75 | 997.2 |
| 20260507031527 | 77 | 86 | 0.0 | 1.7 | 0.00 | 0.00 | 0.00 | 75 | 1004.9 |
| 20260507030027 | 78 | 85 | 0.9 | 2.6 | 0.00 | 0.00 | 0.00 | 74 | 986.9 |
| 20260507024527 | 78 | 86 | 0.9 | 3.5 | 0.00 | 0.00 | 0.00 | 74 | 986.5 |
| 20260507023025 | 78 | 69 | 1.7 | 3.5 | 0.00 | 0.00 | 0.00 | 74 | 988.7 |
| 20260507021523 | 78 | 73 | 0.9 | 5.2 | 0.00 | 0.00 | 0.00 | 73 | 995.8 |
| 20260507020030 | 78 | 79 | 1.7 | 3.5 | 0.00 | 0.00 | 0.00 | 72 | 1000.0 |
| 20260507014522 | 79 | 81 | 1.7 | 3.5 | 0.00 | 0.00 | 0.00 | 71 | 999.2 |
| 20260507013039 | 79 | 60 | 1.7 | 2.6 | 0.00 | 0.00 | 0.00 | 70 | 997.1 |
| 20260507011603 | 79 | 87 | 1.7 | 3.5 | 0.00 | 0.00 | 0.00 | 69 | 995.9 |
| 20260507010104 | 79 | 84 | 1.7 | 3.5 | 0.00 | 0.00 | 0.00 | 68 | 993.7 |
| 20260507004554 | 79 | 88 | 1.7 | 3.5 | 0.00 | 0.00 | 0.00 | 67 | 993.7 |
| 20260507003054 | 80 | 76 | 2.6 | 4.3 | 0.00 | 0.00 | 0.00 | 66 | 993.7 |
| 20260507001554 | 81 | 83 | 2.6 | 4.3 | 0.00 | 0.00 | 0.00 | 65 | 999.4 |
| 20260507000052 | 81 | 80 | 2.6 | 4.3 | 0.00 | 0.00 | 0.00 | 65 | 999.7 |
| 20260506234551 | 80 | 60 | 1.7 | 3.5 | 0.00 | 0.00 | 0.00 | 63 | 994.8 |
| 20260506233104 | 80 | 66 | 1.7 | 3.5 | 0.00 | 0.00 | 0.00 | 63 | 997.6 |
| 20260506231549 | 79 | 79 | 1.7 | 4.3 | 0.00 | 0.00 | 0.00 | 63 | 1000.6 |
| 20260506230049 | 80 | 73 | 1.7 | 3.5 | 0.00 | 0.00 | 0.00 | 63 | 992.4 |
| 20260506224548 | 81 | 122 | 0.9 | 3.5 | 0.00 | 0.00 | 0.00 | 60 | 991.4 |
| 20260506223050 | 81 | 154 | 0.9 | 3.5 | 0.00 | 0.00 | 0.00 | 59 | 1001.7 |
| 20260506221553 | 79 | 158 | 1.7 | 3.5 | 0.00 | 0.00 | 0.00 | 62 | 1001.7 |
| 20260506220044 | 81 | 193 | 1.7 | 4.3 | 0.00 | 0.00 | 0.00 | 60 | 1001.2 |
| 20260506214544 | 80 | 211 | 1.7 | 4.3 | 0.00 | 0.00 | 0.00 | 61 | 1004.3 |
| 20260506213044 | 81 | 224 | 2.6 | 4.3 | 0.00 | 0.00 | 0.00 | 58 | 1000.7 |
| 20260506211542 | 83 | 172 | 1.7 | 3.5 | 0.00 | 0.00 | 0.00 | 55 | 1003.9 |
| 20260506210043 | 85 | 223 | 1.7 | 3.5 | 0.00 | 0.00 | 0.00 | 52 | 1004.9 |
| 20260506204541 | 85 | 226 | 1.7 | 3.5 | 0.00 | 0.00 | 0.00 | 52 | 1006.5 |
| 20260506203039 | 85 | 227 | 1.7 | 3.5 | 0.00 | 0.00 | 0.00 | 53 | 1005.2 |
| 20260506201511 | 85 | 177 | 1.7 | 4.3 | 0.00 | 0.00 | 0.00 | 54 | 998.0 |
| 20260506200027 | 85 | 210 | 2.6 | 4.3 | 0.00 | 0.00 | 0.00 | 55 | 1002.8 |
| 20260506194507 | 86 | 271 | 0.9 | 4.3 | 0.00 | 0.00 | 0.00 | 58 | 1000.0 |